Hourly Data Report for October 21, 2012

All times are specified in Local Standard Time (LST). Add 1 hour to adjust for Daylight Saving Time where and when it is observed.

ST LEONARD CS
NEW BRUNSWICK

47°09'28.050" N
67°49'55.014" W
245.00 m
810I001
71019
WIY

Download Data

Hourly Data (October 2012)
Hourly Data Report for October 21, 2012
Temp Definition
°C
Dew Point Temp Definition
°C
Rel Hum Definition
%
Wind Dir Definition
10's deg

Wind Spd Definition
km/h
Visibility Definition
km
Stn Press Definition
kPa
Hmdx Definition


Wind Chill Definition


Weather Definition


TIME
00:00 16.0 15.4 96 18 9   97.27     LegendNANA
01:00 15.9 15.1 95 19 11   97.28     LegendNANA
02:00 15.4 14.2 93 25 13   97.31     LegendNANA
03:00 12.4 11.3 93 29 4   97.33     LegendNANA
04:00 12.1 10.9 92 28 4   97.38     LegendNANA
05:00 11.7 10.4 92 27 7   97.36     LegendNANA
06:00 11.2 10.3 94 26 7   97.37     LegendNANA
07:00 10.3 9.0 92 26 6   97.45     LegendNANA
08:00 10.1 7.8 86 26 9   97.50     LegendNANA
09:00 9.5 7.7 89 27 9   97.52     LegendNANA
10:00 10.1 6.6 79 27 7   97.50     LegendNANA
11:00 11.5 6.8 73 27 9   97.50     LegendNANA
12:00 11.6 5.5 66 25 13   97.51     LegendNANA
13:00 11.3 5.4 67 26 13   97.47     LegendNANA
14:00 12.6 5.7 63 23 17   97.40     LegendNANA
15:00 12.1 6.1 67 22 11   97.34     LegendNANA
16:00 11.4 5.5 67 23 15   97.34     LegendNANA
17:00 10.2 6.3 77 23 11   97.34     LegendNANA
18:00 9.8 5.8 76 22 13   97.33     LegendNANA
19:00 9.3 5.6 78 22 11   97.31     LegendNANA
20:00 9.0 5.4 78 24 9   97.26     LegendNANA
21:00 8.9 5.4 79 25 13   97.28     LegendNANA
22:00 7.8 5.1 83 25 9   97.26     LegendNANA
23:00 6.9 5.1 88 25 4   97.22     LegendNANA

Notes on Data Quality.

Legend

  • E = Estimated
  • M = Missing
  • NA = Not Available
  • ‡ = Partner data that is not subject to review by the National Climate Archives
Date modified: